Waarnemingen

Advertentie
Mijn weer
La Roche-Sur-Yon, Frankrijk (7306): temperatuur & dauwpunt: 17.01.2018 05:00:00 - 23.01.2018 05:00:00 (CET)La Roche-Sur-Yon, Frankrijk (7306): temperatuur 5cm: 17.01.2018 05:00:00 - 23.01.2018 05:00:00 (CET)La Roche-Sur-Yon, Frankrijk (7306): temperatuur -20cm & temperatuur -100cm: 17.01.2018 05:00:00 - 23.01.2018 05:00:00 (CET)La Roche-Sur-Yon, Frankrijk (7306): windsnelheid & windstoten: 17.01.2018 05:00:00 - 23.01.2018 05:00:00 (CET)La Roche-Sur-Yon, Frankrijk (7306): windrichting: 17.01.2018 05:00:00 - 23.01.2018 05:00:00 (CET)La Roche-Sur-Yon, Frankrijk (7306): luchtdruk: 17.01.2018 05:00:00 - 23.01.2018 05:00:00 (CET)La Roche-Sur-Yon, Frankrijk (7306): zicht: 17.01.2018 05:00:00 - 23.01.2018 05:00:00 (CET)La Roche-Sur-Yon, Frankrijk (7306): Zonneschijnduur: 17.01.2018 05:00:00 - 23.01.2018 05:00:00 (CET)La Roche-Sur-Yon, Frankrijk (7306): neerslag: 17.01.2018 05:00:00 - 23.01.2018 05:00:00 (CET)
Datum & Tijd tt [°C] td [°C] tt 5cm [°C] tt -20cm [°C] tt -100cm [°C] ff [km/u] ff [kn] fx [km/u] fx [kn] dd ppp [hPa] vv [km] sd [min] rr [mm]
23.01.2018 05:00:00 8,8 8,7 7,3 9,4 9,6 13 7 19 10 Z 1025,4 0,3 0 0,0
23.01.2018 04:00:00 7,8 7,7 7,0 9,5 9,7 11 6 18 10 Z 1025,9 0,5 0 0,0
23.01.2018 03:00:00 7,1 7,0 6,1 9,6 9,6 9 5 13 7 Z 1026,3 0,2 0 0,0
23.01.2018 02:00:00 6,7 6,6 5,3 9,6 9,6 8 5 12 6 Z 1026,4 0,2 0 0,0
23.01.2018 01:00:00 6,3 6,2 5,8 9,7 9,6 5 3 9 5 Z 1026,9 0,4 0 0,0
23.01.2018 00:00:00 6,7 6,6 3,4 9,9 9,6 8 4 10 5 Z 1026,6 0,2 0 0,0
22.01.2018 23:00:00 6,9 6,6 3,0 9,9 9,6 6 3 10 5 ZW 1026,4 0,5 0 0,0
22.01.2018 22:00:00 7,2 6,8 3,6 10,0 9,6 6 3 10 6 ZW 1026,4 4,4 0 0,0
22.01.2018 21:00:00 7,4 6,8 4,0 10,1 9,6 6 4 10 5 ZW 1026,2 7 0 0,0
22.01.2018 20:00:00 8,3 7,2 6,6 10,2 9,6 7 4 19 10 W 1025,7 13 0 0,0
22.01.2018 19:00:00 9,0 7,4 7,7 10,2 9,6 10 6 20 11 W 1024,7 19 0 0,0
22.01.2018 18:00:00 9,8 7,6 8,2 10,2 9,6 9 5 29 15 W 1024,0 42 0 0,0
22.01.2018 17:00:00 11,1 7,8 10,8 10,2 9,6 21 11 42 23 W 1023,1 60 48 0,0
22.01.2018 16:00:00 12,5 7,8 12,8 10,2 9,6 29 16 53 29 WNW 1022,2 37 55 0,0
22.01.2018 15:00:00 12,3 8,4 12,2 10,2 9,6 32 17 61 33 WNW 1021,1 38 32 0,0
22.01.2018 14:00:00 11,9 8,0 12,2 10,1 9,5 40 22 64 35 WNW 1020,2 54 6 0,0
22.01.2018 13:00:00 12,3 8,9 11,8 10,1 9,6 36 19 74 40 W 1019,2 19 33 0,0
22.01.2018 12:00:00 12,6 9,4 11,7 10,1 9,5 43 23 69 37 W 1018,6 17 9 0,0
22.01.2018 11:00:00 12,7 11,1 11,8 10,0 9,5 32 18 72 39 W 1018,3 18 0 0,0
22.01.2018 10:00:00 12,2 11,6 11,7 10,1 9,5 38 21 65 35 W 1017,6 8 0 0,4
22.01.2018 09:00:00 12,0 11,5 11,3 10,0 9,5 36 20 61 33 WZW 1017,6 2,1 0 0,4
22.01.2018 08:00:00 11,6 11,1 11,1 10,0 9,5 26 14 48 26 WZW 1018,1 1,7 0 0,2
22.01.2018 07:00:00 11,6 10,7 11,1 10,0 9,5 31 17 52 28 WZW 1018,6 18 0 0,0
22.01.2018 06:00:00 11,6 11,1 11,3 10,0 9,5 30 16 55 30 WZW 1019,2 3,1 0 0,2
22.01.2018 05:00:00 11,7 11,2 11,3 10,0 9,5 35 19 59 32 WZW 1019,6 2,6 0 0,0
22.01.2018 04:00:00 11,6 11,1 11,3 9,9 9,5 31 17 54 29 WZW 1019,8 2,4 0 0,2
22.01.2018 03:00:00 11,6 11,3 11,3 9,9 9,5 28 15 52 28 W 1019,9 2,0 0 0,2
22.01.2018 02:00:00 11,6 11,1 11,3 9,9 9,5 26 14 47 25 WZW 1020,2 2,0 0 0,0
22.01.2018 01:00:00 11,6 11,1 11,3 9,9 9,5 29 16 51 28 W 1020,7 2,7 0 0,2
22.01.2018 00:00:00 11,5 11,0 11,1 9,9 9,5 28 15 52 28 W 1020,6 2,0 0 0,0
21.01.2018 23:00:00 11,6 11,0 11,0 9,9 9,5 29 15 48 26 W 1020,6 18 0 0,2
21.01.2018 22:00:00 11,4 10,9 10,9 9,9 9,5 25 14 47 26 W 1020,8 2,8 0 0,2
21.01.2018 21:00:00 11,3 10,7 10,8 9,9 9,5 23 12 41 22 W 1021,1 3,5 0 0,2
21.01.2018 20:00:00 11,3 10,5 10,7 9,8 9,5 24 13 44 24 W 1020,8 7 0 0,0
21.01.2018 19:00:00 11,2 10,4 10,6 9,8 9,5 28 15 53 29 W 1020,9 6 0 0,2
21.01.2018 18:00:00 11,4 10,8 11,0 9,8 9,5 27 14 49 26 W 1020,8 7 0 0,0
21.01.2018 17:00:00 11,6 10,8 11,2 9,8 9,5 27 15 47 25 W 1021,0 4,2 0 0,0
21.01.2018 16:00:00 11,5 10,9 11,4 9,7 9,5 27 14 49 26 W 1020,7 3,5 0 0,2
21.01.2018 15:00:00 11,6 11,0 11,4 9,7 9,5 24 13 45 25 W 1020,9 4,8 0 0,0
21.01.2018 14:00:00 11,6 11,1 11,5 9,6 9,5 24 13 44 24 W 1020,9 3,2 0 0,0
21.01.2018 13:00:00 11,6 11,0 11,6 9,6 9,5 24 13 39 21 W 1021,3 3,7 0 0,0
21.01.2018 12:00:00 11,9 11,1 11,3 9,6 9,5 24 13 46 25 W 1021,5 3,3 0 0,0
21.01.2018 11:00:00 11,6 11,0 11,3 9,6 9,5 30 16 51 27 W 1020,9 19 0 0,0
21.01.2018 10:00:00 11,6 11,0 11,3 9,5 9,5 29 16 44 24 WNW 1020,3 58 0 0,0
21.01.2018 09:00:00 11,7 11,2 11,4 9,5 9,4 26 14 45 24 W 1019,9 20 0 0,0
21.01.2018 08:00:00 11,7 11,4 11,4 9,5 9,5 26 14 39 21 W 1019,2 2,7 0 0,0
21.01.2018 07:00:00 11,6 11,3 11,3 9,4 9,5 21 11 38 21 W 1018,7 2,4 0 0,4
21.01.2018 06:00:00 11,6 11,1 11,3 9,4 9,4 20 11 38 21 W 1018,6 1,8 0 0,2
21.01.2018 05:00:00 11,6 11,1 11,3 9,3 9,4 20 11 38 20 W 1018,2 2,5 0 1,0
21.01.2018 04:00:00 11,7 11,2 11,1 9,4 9,5 22 12 45 24 W 1017,9 2,8 0 0,2
21.01.2018 03:00:00 11,5 10,9 11,1 9,3 9,5 19 10 46 25 W 1017,6 4,9 0 0,2
21.01.2018 02:00:00 11,7 10,4 11,0 9,2 9,4 29 16 50 27 WNW 1017,2 58 0 0,0
21.01.2018 01:00:00 11,7 10,6 11,0 9,2 9,4 33 18 56 31 W 1016,4 14 0 0,0
21.01.2018 00:00:00 11,7 10,8 11,1 9,2 9,5 36 20 59 32 WNW 1015,7 8 0 0,0
20.01.2018 23:00:00 11,8 10,7 11,2 9,2 9,5 36 19 66 36 WNW 1014,9 15 0 0,0
20.01.2018 22:00:00 11,9 11,0 11,3 9,1 9,4 36 19 61 33 WNW 1014,1 12 0 0,2
20.01.2018 21:00:00 11,9 11,1 11,4 9,0 9,4 40 21 65 35 WNW 1013,2 6 0 0,0
20.01.2018 20:00:00 11,9 11,1 11,3 8,9 9,4 37 20 64 35 WNW 1012,7 6 0 0,2
20.01.2018 19:00:00 12,0 11,2 11,5 8,9 9,4 40 22 72 39 W 1011,9 6 0 0,0
20.01.2018 18:00:00 12,0 11,4 11,6 8,8 9,5 38 21 67 36 W 1011,3 6 0 0,0
20.01.2018 17:00:00 12,3 11,4 11,8 8,7 9,4 44 24 74 40 W 1010,6 5 0 0,0
20.01.2018 16:00:00 12,1 11,5 11,8 8,6 9,5 39 21 75 40 W 1010,0 3,3 0 0,2
20.01.2018 15:00:00 12,3 11,5 12,0 8,5 9,5 38 20 78 42 W 1009,4 9 0 0,0
20.01.2018 14:00:00 12,4 11,6 12,0 8,4 9,4 41 22 70 38 W 1009,2 6 0 0,2
20.01.2018 13:00:00 12,3 11,7 11,9 8,2 9,5 45 25 78 42 W 1009,2 2,7 0 0,4
20.01.2018 12:00:00 12,3 11,7 11,8 8,1 9,4 43 23 74 40 W 1009,2 3,9 0 1,0
20.01.2018 11:00:00 12,1 11,5 11,4 8,0 9,5 40 22 74 40 W 1008,9 3,5 0 1,2
20.01.2018 10:00:00 11,7 11,1 10,8 7,9 9,5 40 22 75 41 W 1008,5 3,1 0 1,4
20.01.2018 09:00:00 11,4 10,8 10,3 7,8 9,5 40 21 71 39 W 1008,2 2,4 0 3,3
20.01.2018 08:00:00 10,8 10,0 9,0 7,8 9,5 39 21 66 36 W 1008,8 4,4 0 4,2
20.01.2018 07:00:00 9,4 8,8 8,0 7,8 9,5 32 18 52 28 ZZW 1009,9 4,4 0 4,4
20.01.2018 06:00:00 8,6 7,7 7,8 7,8 9,5 23 12 46 25 ZZW 1012,5 9 0 3,1
20.01.2018 05:00:00 8,7 7,5 7,8 7,8 9,5 29 16 57 31 ZW 1014,6 7 0 2,0
20.01.2018 04:00:00 8,4 7,6 7,2 7,8 9,5 17 9 47 26 ZW 1016,2 9 0 1,4
20.01.2018 03:00:00 7,7 6,9 6,3 7,9 9,5 13 7 26 14 ZZW 1017,2 7 0 1,8
20.01.2018 02:00:00 7,0 5,5 5,6 7,9 9,5 13 7 22 12 ZZW 1018,6 17 0 0,2
20.01.2018 01:00:00 6,3 4,8 3,2 8,0 9,5 10 6 18 10 ZZW 1019,7 42 0 0,0
20.01.2018 00:00:00 4,6 2,9 2,6 8,1 9,5 9 5 14 7 ZZW 1020,3 44 0 0,0
19.01.2018 23:00:00 5,4 3,6 3,5 8,1 9,5 8 5 16 9 ZW 1020,4 60 0 0,0
19.01.2018 22:00:00 5,2 3,4 3,4 8,2 9,5 9 5 22 12 WZW 1020,6 58 0 0,0
19.01.2018 21:00:00 5,4 2,7 3,9 8,3 9,5 9 5 22 12 W 1020,3 60 0 0,0
19.01.2018 20:00:00 6,1 3,1 4,8 8,3 9,5 13 7 22 12 W 1020,1 60 0 0,0
19.01.2018 19:00:00 6,5 3,6 4,9 8,4 9,5 14 7 21 11 W 1019,6 60 0 0,0
19.01.2018 18:00:00 7,4 3,3 6,2 8,4 9,5 13 7 28 15 W 1019,3 60 7 0,0
19.01.2018 17:00:00 8,5 3,7 8,3 8,3 9,5 17 9 37 20 W 1019,0 59 44 0,0
19.01.2018 16:00:00 8,8 4,4 8,6 8,3 9,5 16 9 30 16 WNW 1018,3 60 14 0,0
19.01.2018 15:00:00 9,6 4,8 9,3 8,2 9,5 18 10 36 19 WNW 1017,8 60 38 0,0
19.01.2018 14:00:00 9,6 3,3 9,7 8,2 9,5 24 13 38 20 NW 1018,3 56 40 0,0
19.01.2018 13:00:00 9,5 5,3 8,3 8,2 9,5 20 11 31 17 WNW 1018,5 60 40 0,0
19.01.2018 12:00:00 8,3 4,7 8,1 8,3 9,5 22 12 42 23 W 1018,5 60 25 0,0
19.01.2018 11:00:00 8,0 5,5 7,6 8,3 9,5 15 8 22 12 W 1018,2 10 23 0,0
19.01.2018 10:00:00 6,8 5,3 4,9 8,4 9,5 9 5 33 18 W 1017,9 10 21 0,6
19.01.2018 09:00:00 5,7 5,3 1,6 8,5 9,5 10 5 16 8 ZW 1017,6 18 0 0,0
19.01.2018 08:00:00 5,5 4,5 2,4 8,6 9,5 5 3 17 9 WZW 1017,7 10 0 0,0
19.01.2018 07:00:00 6,1 4,6 4,0 8,6 9,5 5 3 11 6 WZW 1017,3 10 0 0,0
19.01.2018 06:00:00 6,2 4,5 2,0 8,7 9,5 8 4 11 6 ZW 1017,3 10 0 0,0
19.01.2018 05:00:00 6,2 4,5 1,9 8,8 9,5 5 3 8 5 WZW 1017,3 10 0 0,0
19.01.2018 04:00:00 7,5 4,6 5,7 8,8 9,5 8 4 19 10 WZW 1017,1 10 0 0,0
19.01.2018 03:00:00 8,4 6,2 7,6 8,8 9,5 13 7 23 13 WNW 1017,1 10 0 0,0
19.01.2018 02:00:00 8,2 7,0 7,4 8,8 9,5 9 5 16 8 W 1016,9 10 0 0,0
19.01.2018 01:00:00 8,6 7,1 7,8 8,9 9,5 9 5 20 11 WZW 1017,0 10 0 0,0
19.01.2018 00:00:00 9,0 6,8 8,3 8,9 9,5 8 4 27 14 W 1016,5 10 0 0,0
18.01.2018 23:00:00 9,1 7,0 7,8 8,9 9,5 15 8 26 14 W 1016,6 10 0 0,0
18.01.2018 22:00:00 9,0 6,8 7,9 8,9 9,5 16 9 32 17 W 1016,1 10 0 0,0
18.01.2018 21:00:00 9,8 7,6 9,0 8,9 9,5 16 9 40 21 W 1015,6 10 0 0,0
18.01.2018 20:00:00 10,6 9,0 9,7 8,9 9,5 16 9 37 20 W 1015,1 10 0 0,0
18.01.2018 19:00:00 11,0 9,7 10,3 8,8 9,5 21 11 39 21 W 1014,7 10 0 0,0
18.01.2018 18:00:00 11,3 10,4 10,5 8,7 9,5 21 11 53 29 W 1014,3 10 0 0,0
18.01.2018 17:00:00 11,6 11,0 11,2 8,7 9,5 29 16 52 28 W 1014,1 14 0 0,4
18.01.2018 16:00:00 11,7 11,1 11,4 8,5 9,5 34 18 64 34 W 1013,7 3,8 0 0,4
18.01.2018 15:00:00 11,6 11,1 11,3 8,4 9,5 28 15 57 31 WZW 1013,9 3,6 0 0,8
18.01.2018 14:00:00 11,5 10,9 11,1 8,3 9,5 31 17 53 29 WZW 1014,4 3,9 0 1,0
18.01.2018 13:00:00 11,2 10,7 10,9 8,3 9,5 31 17 49 26 WZW 1015,1 2,3 0 1,2
18.01.2018 12:00:00 11,0 10,4 10,6 8,2 9,5 31 17 56 31 WZW 1015,7 1,9 0 1,0
18.01.2018 11:00:00 10,8 10,0 10,3 8,1 9,5 29 16 56 30 WZW 1015,9 2,2 0 0,4
18.01.2018 10:00:00 10,9 9,7 10,0 8,1 9,5 35 19 61 33 WZW 1016,1 16 0 0,0
18.01.2018 09:00:00 10,6 9,5 9,7 8,0 9,5 29 16 62 33 WZW 1016,0 10 0 0,0
18.01.2018 08:00:00 10,4 9,5 9,6 8,0 9,5 29 16 55 30 WZW 1016,0 10 0 0,0
18.01.2018 07:00:00 10,1 9,2 9,4 7,9 9,5 31 17 58 31 WZW 1016,3 10 0 0,2
18.01.2018 06:00:00 9,8 9,0 9,1 7,9 9,5 28 15 53 28 WZW 1016,9 8 0 0,4
18.01.2018 05:00:00 9,7 8,8 8,8 7,8 9,5 26 14 51 28 WZW 1017,3 7 0 0,4
18.01.2018 04:00:00 9,4 8,3 8,6 7,8 9,5 22 12 52 28 WZW 1018,0 6 0 0,0
18.01.2018 03:00:00 9,8 7,6 8,4 7,8 9,5 28 15 55 30 WZW 1018,3 19 0 0,0
18.01.2018 02:00:00 9,4 7,3 7,9 7,8 9,5 24 13 45 25 WZW 1018,9 10 0 0,0
18.01.2018 01:00:00 8,6 7,4 7,8 7,8 9,5 24 13 45 25 WZW 1020,0 10 0 0,2
18.01.2018 00:00:00 9,2 6,3 7,8 7,8 9,5 21 11 36 19 WZW 1020,4 10 0 0,0
17.01.2018 23:00:00 8,7 6,1 6,0 7,9 9,5 17 9 29 15 ZW 1020,8 13 0 0,0
17.01.2018 22:00:00 7,4 5,4 5,8 7,9 9,5 13 7 20 11 ZW 1021,5 10 0 0,0
17.01.2018 21:00:00 7,2 5,0 5,4 7,9 9,5 12 7 26 14 ZW 1021,8 47 0 0,0
17.01.2018 20:00:00 7,4 4,9 5,6 8,0 9,5 13 7 29 16 WZW 1022,1 10 0 0,0
17.01.2018 19:00:00 7,3 4,8 5,8 7,9 9,4 13 7 27 15 WZW 1022,6 10 0 0,0
17.01.2018 18:00:00 8,3 4,3 7,3 7,9 9,5 16 9 32 17 W 1022,4 10 5 0,0
17.01.2018 17:00:00 8,6 4,8 7,6 7,9 9,5 15 8 40 22 W 1022,3 10 31 0,0
17.01.2018 16:00:00 9,3 3,9 8,7 7,8 9,5 26 14 39 21 W 1022,3 10 30 0,0
17.01.2018 15:00:00 9,5 3,5 9,5 7,8 9,5 26 14 47 26 W 1022,3 47 46 0,0
17.01.2018 14:00:00 9,3 2,8 9,5 7,8 9,5 29 16 46 25 W 1022,3 10 43 0,0
17.01.2018 13:00:00 9,5 3,2 10,5 7,8 9,5 28 15 48 26 WNW 1022,4 10 60 0,0
17.01.2018 12:00:00 8,8 3,6 8,5 7,9 9,5 25 13 39 21 W 1022,6 19 42 0,0
17.01.2018 11:00:00 8,0 3,1 6,3 7,9 9,5 20 11 33 18 W 1022,0 60 51 0,0
17.01.2018 10:00:00 6,8 2,9 4,8 8,0 9,4 20 11 35 19 W 1020,8 60 30 0,0
17.01.2018 09:00:00 5,9 2,4 4,4 8,1 9,5 19 11 42 23 WNW 1019,5 50 0 0,0
17.01.2018 08:00:00 5,8 2,4 4,8 8,2 9,5 22 12 48 26 W 1018,6 10 0 0,0
17.01.2018 07:00:00 6,9 2,2 5,4 8,2 9,5 28 15 51 28 WNW 1017,4 10 0 0,0
17.01.2018 06:00:00 6,7 2,8 5,4 8,4 9,5 28 15 40 22 W 1016,6 10 0 0,0
17.01.2018 05:00:00 6,5 3,1 5,5 8,5 9,5 26 14 46 25 WNW 1015,8 10 0 0,0

tt = temperatuur
td = dauwpunt
tt 5cm = temperatuur 5cm
tt -20cm = temperatuur -20cm
tt -100cm = temperatuur -100cm
ff = windsnelheid
fx = windstoten
dd = windrichting
ppp = luchtdruk
vv = zicht
sd = Zonneschijnduur
rr = neerslag

Weerstations in de omgeving